Total_Precipitation_Accumulation
1.72 1.61 1.60 1.55 1.49 1.49 1.57 1.76 2.10 1.93 1.31 0.98 1.00 1.05 1.14 1.25 1.31 1.21 1.15 1.41 1.51 1.57 1.68 1.76 1.87 2.04 2.38 2.96 3.63 4.60 5.25 4.96 4.16 3.61 3.58 3.98 4.53 5.06
1.84 1.79 1.64 1.56 1.56 1.59 1.66 1.68 1.80 1.99 1.66 1.01 0.88 0.95 1.11 1.32 1.46 1.24 1.20 1.43 1.47 1.54 1.55 1.58 1.75 1.93 2.16 2.46 2.87 3.48 4.43 4.97 4.77 4.25 3.89 4.05 4.36 4.83
1.85 1.86 1.71 1.60 1.71 1.75 1.80 1.83 1.76 1.81 1.84 1.21 0.95 1.02 1.27 1.42 1.50 1.37 1.34 1.34 1.34 1.50 1.55 1.56 1.61 1.83 2.03 2.20 2.40 2.79 3.47 4.24 4.75 4.80 4.52 4.30 4.36 4.48
1.78 1.80 1.78 1.68 1.68 1.72 1.83 1.85 1.76 1.68 1.78 1.56 1.21 1.19 1.35 1.50 1.56 1.54 1.51 1.46 1.33 1.46 1.53 1.62 1.61 1.74 1.96 2.08 2.19 2.41 2.79 3.32 3.92 4.45 4.65 4.38 4.27 4.33
1.69 1.73 1.74 1.74 1.67 1.62 1.71 1.78 1.71 1.67 1.72 1.74 1.46 1.31 1.41 1.57 1.74 1.78 1.72 1.69 1.53 1.52 1.55 1.63 1.74 1.77 1.90 2.03 2.15 2.27 2.40 2.57 2.98 3.66 4.31 4.41 4.24 4.27
1.60 1.59 1.66 1.78 1.80 1.77 1.78 1.75 1.80 1.91 1.89 1.90 1.72 1.53 1.55 1.67 1.85 1.96 1.98 1.91 1.80 1.61 1.65 1.72 1.80 1.86 1.86 1.89 1.90 1.97 2.09 2.39 2.76 3.24 3.73 4.13 4.20 4.19
1.52 1.43 1.51 1.80 2.03 2.19 2.23 2.05 2.07 2.28 2.27 2.22 2.07 1.83 1.70 1.76 1.89 1.89 1.99 1.95 1.93 1.79 1.69 1.70 1.70 1.68 1.69 1.76 1.80 1.82 1.92 2.13 2.42 2.76 3.18 3.57 3.90 4.11
1.58 1.43 1.45 1.75 1.95 2.14 2.31 2.25 2.24 2.44 2.57 2.52 2.34 2.03 1.66 1.54 1.64 1.90 2.16 2.37 2.34 2.00 1.81 1.84 1.68 1.75 1.72 1.64 1.81 1.88 1.91 2.07 2.28 2.50 2.78 3.08 3.43 3.84
1.49 1.46 1.50 1.61 1.78 1.78 1.97 2.04 2.00 2.16 2.41 2.52 2.50 2.02 1.77 1.65 1.92 2.23 2.28 2.39 2.27 2.13 2.13 2.25 1.91 1.84 1.77 1.81 1.93 1.87 1.95 2.03 2.16 2.33 2.54 2.75 3.01 3.38
1.57 1.48 1.42 1.46 1.62 1.82 1.92 1.90 1.76 1.78 1.99 2.17 2.38 2.16 1.96 2.00 2.38 2.74 2.88 2.87 2.55 2.35 2.29 2.59 2.18 1.95 1.86 1.83 1.93 1.83 1.85 1.94 2.03 2.12 2.29 2.51 2.73 2.99
1.63 1.54 1.41 1.35 1.63 1.88 1.83 1.77 1.66 1.65 1.78 2.00 2.17 2.25 2.30 2.47 2.82 3.31 3.54 3.56 3.24 2.76 2.46 2.55 2.42 2.23 2.22 2.20 2.14 2.03 1.85 1.82 1.91 1.99 2.09 2.24 2.48 2.82
1.67 1.59 1.66 1.61 1.77 1.83 1.69 1.76 1.87 1.69 1.59 1.64 1.71 1.77 1.80 1.97 2.46 2.93 3.37 3.60 3.36 3.19 2.68 2.53 2.51 2.56 3.06 2.81 2.39 2.08 1.90 1.86 1.83 1.85 1.89 1.96 2.16 2.32
1.68 1.66 1.59 1.80 1.84 1.83 1.80 1.74 1.93 1.81 1.66 1.72 1.70 1.63 1.61 1.72 1.91 2.26 2.84 3.38 3.49 3.21 2.71 2.83 3.00 2.64 2.90 2.98 2.66 2.25 1.88 1.76 1.68 1.74 1.78 1.84 1.90 1.96
1.70 1.58 1.56 1.79 1.83 1.87 1.81 1.86 1.94 1.90 1.77 1.79 1.70 1.60 1.60 1.68 1.82 2.02 2.34 2.72 2.93 2.90 2.62 2.86 3.37 2.97 2.74 2.59 2.54 2.43 2.04 1.81 1.64 1.61 1.61 1.89 1.97 2.00
1.85 1.89 1.84 1.92 1.92 1.80 1.76 1.82 1.75 1.65 1.73 1.80 1.68 1.48 1.41 1.52 1.65 1.79 1.92 2.15 2.38 2.46 2.52 2.64 2.96 2.98 2.89 2.69 2.27 2.10 2.11 2.11 1.83 1.67 1.64 1.68 1.72 1.78
2.00 1.99 1.98 2.01 1.94 1.85 1.77 1.62 1.49 1.52 1.65 1.66 1.56 1.42 1.32 1.38 1.53 1.65 1.81 1.94 2.27 2.44 2.47 2.58 2.84 3.15 3.14 2.50 2.20 2.01 1.83 2.17 2.10 1.82 1.71 1.69 1.62 1.54
2.06 2.10 2.04 2.00 1.99 1.84 1.62 1.44 1.39 1.49 1.57 1.47 1.46 1.48 1.44 1.43 1.44 1.49 1.70 1.85 2.12 2.24 2.39 2.62 2.87 3.03 3.13 2.89 2.59 2.11 1.79 1.81 1.89 1.80 1.76 1.83 1.85 1.71
2.19 2.14 1.92 1.71 1.65 1.58 1.49 1.41 1.35 1.36 1.36 1.39 1.44 1.45 1.43 1.45 1.46 1.45 1.58 1.78 1.97 2.03 2.14 2.36 2.72 3.04 3.21 3.27 2.87 2.27 1.91 1.84 1.91 1.86 1.75 1.83 2.02 1.93
1.97 1.77 1.60 1.50 1.44 1.40 1.36 1.32 1.30 1.23 1.25 1.35 1.41 1.40 1.37 1.41 1.47 1.50 1.55 1.69 1.83 1.95 2.07 2.18 2.48 2.90 3.12 3.25 3.24 2.61 2.16 1.98 2.02 2.18 2.03 1.82 1.88 1.97
1.61 1.56 1.50 1.44 1.44 1.47 1.44 1.38 1.31 1.28 1.31 1.33 1.34 1.34 1.36 1.44 1.47 1.45 1.48 1.62 1.73 1.84 1.99 2.13 2.40 2.74 3.00 2.94 3.05 2.97 2.67 2.28 2.13 2.32 2.27 2.03 1.95 2.09
1.45 1.45 1.43 1.44 1.47 1.48 1.45 1.41 1.38 1.33 1.27 1.28 1.26 1.24 1.27 1.38 1.40 1.33 1.39 1.54 1.65 1.76 1.90 2.01 2.20 2.44 2.62 2.69 2.73 2.72 2.84 2.81 2.39 2.30 2.29 2.28 2.22 2.21
1.39 1.43 1.41 1.43 1.49 1.51 1.47 1.43 1.42 1.35 1.27 1.24 1.20 1.18 1.19 1.29 1.35 1.33 1.39 1.48 1.51 1.60 1.75 1.87 1.98 2.22 2.50 2.75 2.70 2.55 2.68 2.85 2.80 2.54 2.34 2.25 2.35 2.50
1.48 1.49 1.48 1.46 1.46 1.47 1.47 1.41 1.38 1.33 1.25 1.22 1.20 1.18 1.21 1.26 1.26 1.32 1.36 1.39 1.43 1.48 1.61 1.83 2.00 2.17 2.41 2.58 2.65 2.50 2.45 2.57 2.61 2.62 2.74 2.42 1.99 1.84